CAPE
1234 1617 1198 1217 867 927 696 1439 1192 978 1055 1003 995 790 913 476 362 518 321 181 594 735 622 930 974 1006 1812 2386 2410 2494 2418 1788 2259 1982 1785 1700 1151 1533 1706 1782 1524 1327 1184 1044 979 924 924 944 940 936 950 952 936 926 947 1020 1130 1270 1360 1392 1410 1470 1586 1780 2007 2236 2420 2579 2680 2762 2812 2851 3086 3368
658 1349 1586 689 318 498 782 613 877 759 1004 1141 1028 602 299 286 255 344 218 166 365 528 954 850 987 1286 1714 1660 2791 2796 2711 2356 3063 2404 1901 1722 1535 984 1514 1891 1775 1591 1400 1209 1042 926 906 900 888 866 840 826 808 820 844 851 852 895 925 950 980 1000 1074 1192 1335 1532 1769 1988 2197 2381 2530 2566 2571 2675
1200 1149 546 401 536 723 592 560 479 704 787 996 1086 808 469 420 794 750 426 218 451 259 250 635 550 686 1295 2046 2366 2465 2561 2685 2639 2398 2195 2401 2001 1382 2451 2066 1955 1860 1866 1599 1243 1094 1007 964 928 887 851 827 805 801 785 763 767 776 752 740 732 746 796 847 921 1044 1185 1314 1417 1509 1627 1782 1913 2032
568 453 444 544 448 325 722 699 522 462 599 585 843 760 489 306 352 457 572 380 323 632 246 131 287 656 1203 1896 1842 2163 2260 2720 2742 2888 2254 3133 2394 3018 2621 1568 1261 1542 2080 1886 1353 1147 1037 974 936 888 873 856 855 881 902 873 858 824 780 750 719 701 683 681 687 714 762 834 884 912 946 1036 1181 1343
509 294 224 256 322 399 390 388 345 532 567 632 834 1006 913 676 1040 1095 784 742 862 818 476 155 110 236 792 1035 1250 1143 1684 2822 2974 2757 3306 2783 2874 3162 2749 2953 2380 2018 2153 1664 1242 1050 961 926 936 970 992 1035 1031 1014 975 952 908 862 832 798 771 741 726 703 702 438 121 168 232 278 343 400 658 878
550 282 410 228 93 302 255 303 423 265 448 487 415 470 503 472 358 410 692 557 523 648 377 370 212 173 218 709 836 1093 1237 2303 2595 2873 3280 3760 3329 3552 3377 2600 3224 2238 1626 1253 1080 1032 1075 1102 1133 1135 1115 1100 1093 1056 1059 1031 982 967 953 938 959 968 968 930 900 884 881 874 827 784 762 334 215 377
162 272 288 190 194 179 194 308 378 401 383 480 377 363 348 315 359 386 800 713 373 269 326 240 126 207 175 273 147 299 732 1601 2807 2425 1797 2879 2794 2660 3042 3277 3108 2107 1616 1183 1133 1210 1186 1182 1174 1152 1149 1123 1126 1152 1161 1121 1082 1051 1011 999 1000 1042 1048 1043 1038 1023 1009 969 912 849 780 6 234 392
221 190 172 135 194 153 159 306 668 730 494 268 560 350 395 557 425 168 333 669 390 255 125 200 176 188 169 266 376 304 970 1546 2072 2525 2438 3257 2461 2655 2630 3037 3015 2936 1264 1276 1233 1234 1212 1200 1201 1217 1216 1249 1261 1280 1221 1162 1108 1012 966 907 898 910 881 900 887 849 803 725 0 0 0 0 0 0
122 57 20 30 68 234 177 10 377 903 703 470 330 236 334 346 560 455 1024 1130 1238 837 318 206 275 353 299 165 500 343 1231 1550 1398 1554 1723 2096 2428 2768 2571 2268 1983 2852 1390 1658 1302 1344 1327 1328 1368 1353 1337 1320 1296 1237 1168 1093 992 921 874 837 844 828 814 800 774 764 747 454 452 0 0 0 0 0
54 22 6 11 32 52 116 100 96 337 749 281 568 460 131 260 355 318 290 655 744 684 523 431 280 298 295 421 438 568 916 672 1258 1428 2026 2162 2476 2464 1718 2252 3228 3032 3378 2439 1840 1465 1387 1460 1453 1388 1312 1280 1225 1153 1083 1005 936 907 866 882 880 877 874 850 846 823 802 800 791 790 770 128 0 678
42 18 14 14 17 23 56 55 87 101 566 646 523 448 171 246 440 840 408 499 576 626 475 560 373 330 301 244 356 754 1077 1464 1548 1246 2177 2660 1911 1446 1785 2441 1974 2876 2286 2250 2622 3220 2808 2219 1498 1254 1220 1185 1175 1160 1114 1052 1021 954 991 1026 1004 999 977 948 924 945 959 938 893 861 912 955 860 556
35 8 13 55 46 31 30 32 85 109 175 820 648 464 272 206 329 335 165 280 464 544 444 372 382 402 434 576 642 804 1172 1665 1379 1148 1785 2001 1592 1516 1794 1802 2085 3156 1854 1946 2146 2629 2456 2588 2206 1646 1357 1233 1214 1217 1088 979 940 964 1063 1052 1130 1090 1061 1061 1042 862 504 0 0 0 190 904 996 932
17 3 6 10 10 34 114 26 62 57 100 161 533 631 343 236 538 451 180 251 257 385 439 536 344 367 390 228 580 652 1419 1165 947 1190 2317 1709 1695 1740 1598 2312 2562 3018 2694 2887 2873 2482 3432 3020 2473 3200 2920 2199 1086 847 778 956 762 821 823 787 853 996 1067 1036 812 580 438 428 237 0 766 892 898 802
4 0 1 2 6 5 10 82 135 0 18 20 4 258 862 820 558 167 374 436 504 582 117 135 142 159 214 247 265 798 608 926 861 736 1204 1135 878 1183 2238 2178 2644 3205 2326 2165 2727 3084 2930 2663 2848 2663 2845 3145 2442 2618 1637 1623 1386 809 630 697 773 868 874 733 627 697 800 762 653 739 819 815 736 726
20 6 3 1 8 17 17 4 0 0 0 10 1 2 54 75 44 454 383 249 127 542 284 195 215 165 275 235 284 214 153 138 270 591 1642 1382 1772 2304 2095 1745 1092 2610 3180 2777 1540 2848 3055 2402 1766 1967 2827 2611 2961 2384 2178 2009 1300 1070 872 697 718 819 733 689 870 998 926 770 668 787 807 794 740 702
49 48 40 21 4 9 4 3 1 0 0 0 0 0 0 2 19 50 216 111 180 560 167 139 210 136 106 245 243 171 0 174 288 439 273 782 1628 1523 807 1466 1262 1927 2378 2604 2280 2399 1936 2047 1812 2609 2831 2479 2314 2188 2433 1697 1613 1338 1138 947 846 768 773 1002 1156 1070 864 703 713 810 812 786 706 677
60 110 106 55 27 3 2 0 0 1 1 0 0 0 0 0 0 15 49 49 120 34 162 107 131 170 173 102 154 125 192 282 198 145 716 1064 1249 1451 1638 1749 1520 1779 2196 2886 1860 1122 1607 2302 2726 1786 2189 2178 2163 2600 1396 1274 1191 1160 1041 918 869 941 1026 1134 1182 1068 854 737 779 762 677 723 840 848
176 154 118 118 59 29 10 1 2 2 2 2 1 1 1 0 0 0 15 155 160 88 70 82 67 91 116 75 135 128 207 208 330 382 790 1861 1548 1770 1677 1584 1513 1614 2797 2086 1793 1043 971 2342 1840 1610 1818 1870 2062 2291 2560 1154 906 883 856 766 832 962 1054 1020 1028 1089 1015 823 729 680 560 0 0 0
344 214 140 170 133 76 46 32 0 0 1 1 1 1 1 2 0 93 171 33 144 84 60 52 106 149 137 60 86 146 100 176 659 1055 573 1182 1529 1528 1388 1415 1447 953 2466 2523 1291 767 628 1234 1604 1745 1625 1750 1871 1981 1526 1109 852 768 742 686 636 744 756 755 866 963 1062 1029 938 818 594 0 0 104
478 278 186 172 138 103 85 50 16 0 0 0 3 1 0 0 3 3 20 25 42 135 189 108 50 28 25 12 67 102 328 770 612 164 1090 1295 1515 1454 1367 1447 1388 841 2113 1337 1116 864 609 168 1343 1636 1660 1478 1648 1582 1181 1150 753 637 666 612 498 130 565 621 498 776 972 1064 1048 1095 974 723 426 0
406 351 320 200 226 216 168 114 70 23 0 1 3 4 1 3 4 5 6 7 0 0 0 0 0 0 0 0 0 6 70 205 495 504 454 284 948 922 959 858 748 852 670 734 974 344 398 465 1464 1459 1383 1516 1608 1493 1234 1720 771 612 532 342 86 274 436 502 618 738 902 1007 1100 1107 1058 958 924 686
507 452 310 252 280 266 229 145 103 57 18 5 3 4 3 3 5 6 4 87 30 0 0 0 0 0 0 0 0 12 39 34 88 818 496 148 176 390 548 527 412 489 366 559 469 453 30 644 1531 1271 1202 1463 1456 1290 1286 1011 804 646 446 0 8 135 298 404 495 600 732 908 1053 1118 1076 972 953 744
924 558 392 252 240 224 192 140 102 46 27 9 2 6 4 3 4 44 8 38 74 60 2 0 0 0 0 2 12 90 26 36 88 119 87 114 110 82 72 263 408 259 105 248 1713 984 834 667 1672 1366 1333 1445 1670 1237 1322 1007 689 407 137 0 14 28 30 26 84 182 394 603 810 954 927 819 753 725
889 627 540 409 276 224 147 132 107 67 40 10 1 6 6 3 1 16 31 24 111 190 130 48 37 15 6 10 42 186 176 55 134 75 77 96 96 76 116 213 190 135 48 187 1326 1194 740 472 1110 1530 996 1233 1205 1340 933 939 752 426 405 222 15 0 1 1 1 1 3 47 267 556 736 684 575 512
763 732 541 484 406 258 172 128 101 118 56 9 2 2 1 2 1 1 6 4 9 148 222 30 59 82 52 22 20 45 204 151 74 56 53 65 124 94 47 24 84 125 77 374 1278 1286 726 762 943 1670 1469 990 1155 1350 942 781 355 254 368 349 288 0 0 1 0 0 1 1 0 28 194 354 378 330
772 976 795 567 492 310 203 109 138 102 53 1 1 1 0 0 1 3 6 60 115 189 550 320 195 306 348 329 192 35 46 137 150 154 39 30 64 97 60 33 151 68 188 2542 831 1390 1239 632 962 1514 1793 1407 1148 1115 795 757 439 123 126 250 338 108 0 17 0 0 1 1 0 1 2 62 234 145
852 1072 894 796 468 339 182 80 121 84 62 6 2 1 0 0 1 7 8 16 138 104 85 176 810 151 42 2 17 0 1 26 36 124 111 116 97 82 76 159 646 994 902 1456 1117 2002 1472 1144 1156 1360 1583 1349 1184 826 666 588 452 198 120 244 340 176 108 46 2 0 2 0 0 1 1 3 8 103
919 948 808 679 332 142 77 60 89 78 86 45 4 1 0 1 2 11 49 80 197 112 509 934 770 757 826 661 698 572 516 330 596 447 330 201 178 146 210 558 755 1040 820 1539 1307 1690 1751 1737 1320 1300 1308 1249 936 739 730 626 423 177 158 230 295 125 26 14 35 5 2 0 1 3 2 4 2 0
1122 1078 430 58 0 20 15 46 63 113 102 71 25 6 2 8 12 11 10 23 137 92 223 236 380 403 662 442 292 316 570 580 822 801 456 474 504 866 1568 1742 1314 1136 950 1151 1985 2511 2506 1564 1285 1263 1298 1023 722 609 609 632 432 317 177 231 222 116 16 43 53 1 1 4 3 0 1 1 1 2
112 279 246 71 196 177 183 211 231 180 152 102 72 58 45 56 38 12 0 7 7 94 141 168 12 85 171 152 376 517 620 514 134 100 424 478 694 796 1000 1182 788 489 935 999 880 1605 2331 2165 1447 1394 1482 1311 1020 1198 543 204 626 690 290 266 382 64 3 25 37 13 4 4 2 4 4 6 0 1
356 354 552 514 143 52 121 140 134 117 140 232 177 154 82 58 75 62 52 51 16 16 37 122 112 214 94 48 169 189 221 336 445 618 397 506 545 379 404 418 387 262 374 875 665 634 1174 1264 1282 1141 1342 1226 1045 1118 840 707 950 217 372 267 87 153 49 93 120 68 18 9 5 4 8 2 2 1
6 40 396 1028 677 805 376 424 344 275 195 211 218 209 126 62 58 71 55 39 36 49 12 3 16 18 36 52 31 10 6 2 41 190 398 448 406 255 191 194 200 224 318 601 606 486 501 512 599 927 952 936 768 1493 1503 1109 1075 619 488 278 98 102 105 84 95 124 93 88 41 19 28 11 2 8
0 290 92 196 147 147 124 144 179 261 299 220 224 134 163 117 64 46 28 30 23 10 14 6 4 4 4 5 6 62 13 106 84 120 226 237 305 253 420 246 224 210 251 409 505 420 222 379 421 393 346 330 468 860 1148 1312 1388 1133 663 316 333 427 358 245 150 118 137 134 110 72 60 43 36 6
20 194 114 68 6 5 10 15 36 41 70 87 116 176 134 129 109 74 71 75 48 16 6 2 1 2 1 4 4 10 78 118 138 104 108 28 80 100 191 230 238 167 133 233 242 119 112 144 193 306 297 247 223 235 585 1164 706 377 1104 840 674 260 183 286 178 122 134 202 239 152 136 92 84 82
84 39 5 0 2 1 0 0 0 0 18 10 13 12 34 63 36 36 77 78 73 44 32 14 4 0 1 2 1 2 4 1 2 4 11 32 102 15 46 98 124 82 94 168 168 105 50 73 111 108 179 154 104 133 136 150 169 247 409 805 528 321 221 233 189 197 197 333 305 393 249 133 152 115
0 0 0 0 0 3 0 0 0 0 7 18 2 3 25 42 35 6 26 22 101 68 61 53 32 20 4 1 3 17 10 4 0 0 24 24 12 12 16 10 66 90 101 118 76 40 16 7 46 49 76 89 96 132 103 87 86 136 174 261 475 279 246 208 216 194 196 234 272 486 224 210 243 250
0 0 3 4 2 8 6 0 1 0 2 2 2 6 12 21 10 4 46 52 48 36 31 35 52 71 42 28 14 8 4 8 3 1 7 10 18 18 8 6 2 4 5 27 22 5 0 5 9 42 38 46 57 16 102 47 89 92 133 179 138 131 144 96 102 141 205 274 294 253 226 228 248 388
0 0 0 6 4 2 1 1 6 8 4 2 1 1 12 40 21 64 76 76 69 43 32 35 26 41 58 56 56 37 36 34 29 27 28 44 32 5 5 8 2 8 8 6 5 8 6 3 3 6 12 19 30 26 52 50 83 114 90 129 131 111 82 175 56 98 101 145 204 228 272 406 308 323
1 5 47 25 6 3 2 0 4 8 4 2 1 2 3 2 16 7 50 66 78 70 7 0 10 36 26 40 46 95 71 68 61 51 46 43 52 34 21 0 0 31 1 4 9 12 8 2 4 12 11 2 6 8 13 12 1 6 27 68 67 100 197 144 78 129 216 239 208 206 191 186 136 102
6 10 5 22 16 14 6 0 16 0 0 4 5 2 3 0 2 4 0 31 58 77 92 76 52 17 44 45 44 43 83 73 76 69 64 58 58 54 19 4 22 37 54 10 0 1 0 2 3 2 0 0 0 3 9 11 8 1 0 13 54 38 70 138 178 116 140 198 184 184 194 227 212 119
0 0 0 0 0 4 0 4 8 2 0 0 0 0 0 0 0 0 0 1 3 41 69 98 106 83 38 1 10 15 29 54 60 80 98 92 57 48 32 28 40 46 48 35 11 0 3 6 0 2 4 2 3 20 63 5 4 3 4 1 10 45 59 61 90 80 48 96 106 95 76 128 113 148
0 1 0 0 1 2 1 0 0 0 2 3 0 0 0 5 0 0 1 0 5 2 2 37 69 88 91 78 53 8 12 38 96 146 121 127 118 80 61 68 67 45 84 52 62 61 32 48 26 0 0 0 0 1 0 1 1 5 1 19 52 94 76 92 125 102 100 104 102 140 234 162 36 86
0 0 0 0 0 0 0 0 0 0 0 0 2 1 0 0 0 0 0 0 0 0 5 2 13 20 50 62 79 73 74 61 58 78 150 135 124 137 165 179 134 120 123 146 153 138 110 62 81 87 34 54 32 64 23 0 31 41 1 0 14 116 81 31 30 68 64 49 16 37 80 80 26 4
0 0 0 0 0 0 0 0 0 0 0 0 0 0 1 0 0 0 0 1 2 1 0 0 3 4 1 29 26 41 68 80 83 79 91 171 124 122 114 198 194 152 134 125 153 157 136 124 142 101 93 102 50 65 82 76 92 57 70 2 2 78 100 32 24 28 31 23 16 1 0 0 0 0
0 0 0 0 0 0 0 0 0 0 0 0 0 1 2 5 0 0 0 0 0 2 3 0 0 1 2 4 3 0 0 40 48 72 79 104 191 216 103 65 163 157 155 164 122 125 158 156 129 85 63 84 115 154 204 122 100 76 52 42 52 81 77 49 48 27 22 4 0 0 0 0 0 0
Wind_Speed
28 29 29 34 35 32 29 32 37 36 34 29 30 37 40 37 36 37 37 35 36 34 34 34 31 30 35 35 32 29 27 25 29 30 33 33 31 34 34 34 33 31 29 26 24 23 21 21 21 20 20 19 18 18 17 17 17 17 18 18 18 17 17 17 17 17 18 18 18 18 18 19 19 19
31 30 30 32 33 31 29 28 34 37 34 31 29 31 36 33 32 34 32 33 35 36 38 34 31 29 37 37 36 33 29 27 29 31 32 32 32 32 36 36 35 33 30 28 26 24 24 24 24 23 22 21 20 20 19 20 20 20 20 19 20 19 19 19 19 19 19 19 19 20 20 21 21 21
31 31 29 29 30 31 29 29 31 34 33 32 31 31 34 32 32 34 33 31 36 37 37 37 32 30 38 39 39 37 34 30 29 30 34 34 35 33 37 38 36 33 31 29 27 27 27 28 27 26 25 24 22 22 22 22 22 22 21 21 21 21 21 21 22 21 21 20 20 20 21 21 20 20
30 30 31 31 31 32 32 31 33 34 34 33 34 33 31 26 25 28 33 34 34 38 38 40 38 33 31 40 40 39 37 34 30 33 35 37 39 35 35 34 32 32 32 31 29 29 30 30 30 29 28 26 25 25 24 24 24 23 23 22 22 22 23 23 24 23 23 22 21 21 21 21 20 19
28 28 30 32 32 33 33 31 31 33 35 35 36 38 37 31 27 31 36 36 36 41 40 37 37 39 40 36 38 37 36 36 34 32 35 37 35 35 34 35 35 33 34 33 33 33 33 33 33 32 30 29 28 27 26 25 25 24 24 23 23 24 24 25 25 24 24 23 22 22 21 20 19 18
29 29 29 30 nan 33 32 32 32 31 34 36 34 35 38 36 32 31 37 36 37 40 42 37 35 37 35 35 40 41 35 35 36 32 32 34 35 37 38 36 38 35 35 36 37 36 36 35 35 34 33 31 30 29 28 27 26 26 25 25 25 25 26 26 26 25 24 23 23 22 20 18 18 18
27 27 29 30 32 35 33 33 34 32 31 36 36 33 35 35 34 33 37 39 37 38 40 39 38 38 35 33 34 36 37 38 34 33 32 31 36 37 36 38 41 40 35 36 38 38 37 37 37 36 34 33 31 30 28 27 27 27 27 27 27 26 26 26 25 25 24 23 22 21 19 nan 16 16
24 25 27 29 31 33 33 33 36 38 37 36 38 35 36 37 36 32 35 38 40 39 38 41 40 38 36 36 37 40 42 41 38 33 32 30 33 36 37 39 41 39 38 36 38 39 39 38 38 36 35 33 31 29 28 28 28 28 29 28 27 26 26 25 25 24 24 23 nan nan nan nan nan nan
21 nan nan nan nan 31 34 nan 34 38 37 37 38 37 36 38 37 35 39 41 41 40 38 39 42 40 38 38 39 40 43 44 41 34 32 32 32 33 35 38 39 41 36 35 36 39 38 37 37 36 34 32 31 29 29 29 29 29 29 28 26 25 24 24 24 24 23 22 20 nan nan nan nan nan
nan nan nan nan nan nan 31 35 nan 34 35 35 36 35 34 36 38 36 36 42 40 40 40 40 39 41 39 38 39 40 40 38 38 34 31 30 30 32 32 36 41 43 44 43 41 40 38 35 33 33 33 32 31 30 30 30 29 28 27 26 25 24 24 24 24 24 23 22 21 19 17 15 nan 15
nan nan nan nan nan nan nan nan nan 32 34 38 35 35 33 33 34 36 36 39 39 40 39 39 39 40 39 38 38 40 40 40 40 37 36 35 33 29 29 34 40 42 39 35 33 36 34 33 33 32 31 32 31 31 30 28 27 26 25 25 24 24 24 24 23 23 22 22 20 19 17 16 16 16
nan nan nan nan nan nan nan nan nan 38 34 37 36 37 34 32 33 34 33 36 39 39 37 38 40 41 40 41 41 43 42 40 38 36 35 35 36 34 31 32 35 41 38 34 34 33 34 37 33 34 33 32 32 30 28 25 24 23 23 23 24 24 23 22 22 22 22 nan nan nan 19 18 18 17
nan nan nan nan nan nan 28 nan nan nan nan 43 43 40 36 33 33 37 34 35 37 39 40 39 39 40 40 38 41 41 39 35 35 36 36 35 35 35 31 32 34 39 35 35 34 31 31 32 31 35 37 36 32 29 25 24 22 21 22 22 22 22 22 22 22 22 23 22 21 nan 21 20 20 19
nan nan nan nan nan nan nan nan 44 nan nan nan nan 37 35 32 36 36 32 35 38 38 36 37 37 37 36 37 36 37 36 38 36 34 36 33 33 32 32 35 34 36 32 31 31 32 34 30 30 28 31 34 35 31 31 26 23 23 20 20 20 21 22 22 22 22 23 23 23 22 22 22 22 21
nan nan nan nan nan nan nan nan nan nan nan nan nan nan nan nan nan 37 36 35 36 40 38 39 39 39 37 35 35 35 36 38 36 36 38 36 35 35 33 31 32 30 28 29 29 31 34 29 27 26 30 31 31 31 27 27 20 23 21 18 19 20 21 22 23 23 24 24 24 24 24 24 23 22
nan nan nan nan nan nan nan nan nan nan nan nan nan nan nan nan nan nan 33 34 35 35 34 36 36 37 36 37 36 37 nan 39 38 37 37 36 37 35 29 27 28 33 27 28 28 32 35 28 25 29 32 32 32 30 35 31 25 24 22 20 18 20 22 24 24 25 25 25 25 25 25 25 24 23
nan 18 17 nan nan nan nan nan nan nan nan nan nan nan nan nan nan nan nan nan 29 nan 32 35 35 35 37 35 37 39 40 42 38 36 34 36 35 35 31 30 30 33 26 32 33 28 30 27 30 32 32 32 32 32 32 28 26 22 20 19 19 21 24 26 26 25 25 26 26 25 26 26 26 24
17 17 16 19 nan nan nan nan nan nan nan nan nan nan nan nan nan nan nan 23 24 nan nan nan nan nan 36 nan 37 37 40 39 37 37 37 36 37 37 33 32 31 32 33 31 28 27 28 30 30 30 31 31 31 27 31 28 24 22 20 21 21 22 24 26 26 25 25 25 25 25 26 nan nan nan
17 17 14 16 22 nan nan nan nan nan nan nan nan nan nan nan nan nan 28 nan 33 nan nan nan 28 31 32 nan nan 37 nan 35 36 39 38 39 41 41 39 40 37 33 33 31 29 26 27 29 28 28 29 30 29 27 32 27 25 23 23 22 22 23 25 26 26 25 24 24 25 25 25 nan nan 27
15 15 12 14 20 24 nan nan nan nan nan nan nan nan nan nan nan nan nan nan nan 26 25 24 nan nan nan nan nan 36 37 39 37 39 43 49 48 48 47 40 38 33 36 31 28 28 26 24 25 25 27 29 27 27 26 29 28 28 25 24 24 25 27 27 26 26 26 26 26 26 27 28 28 nan
12 12 12 10 19 24 26 29 nan nan nan nan nan nan nan nan nan nan nan nan nan nan nan nan nan nan nan nan nan nan nan 37 39 40 41 40 44 44 44 42 38 33 34 28 24 24 24 25 24 24 28 28 27 27 26 32 31 32 29 28 nan 29 29 28 27 28 27 28 29 30 31 32 30 30
15 12 11 7 14 24 26 26 31 nan nan nan nan nan nan nan nan nan nan nan nan nan nan nan nan nan nan nan nan nan nan nan nan 40 40 39 39 39 43 44 40 36 30 25 24 24 nan 24 25 26 29 29 27 27 26 31 36 37 35 nan nan 32 30 29 29 29 29 30 32 34 35 36 36 32
21 14 12 9 7 17 23 24 26 nan nan nan nan nan nan nan nan nan nan nan nan nan nan nan nan nan nan nan nan nan nan nan nan 35 nan 37 39 nan nan 41 39 34 31 26 26 26 25 25 27 29 31 28 29 28 27 29 32 32 32 nan nan nan nan nan nan 31 31 31 34 35 36 36 33 32
21 17 13 12 6 7 17 23 25 nan nan nan nan nan nan nan nan nan nan nan 22 24 26 nan nan nan nan nan nan 34 37 nan 33 nan nan nan nan nan 40 42 41 37 nan 34 29 27 31 29 29 30 29 30 29 30 29 30 31 31 32 35 nan nan nan nan nan nan nan nan 32 33 32 30 25 30
23 19 15 11 8 4 7 16 23 25 nan nan nan nan nan nan nan nan nan nan nan 21 26 nan nan nan nan nan nan nan 32 35 nan nan nan nan 35 nan nan nan nan 39 nan 39 35 32 33 35 30 31 30 32 32 33 29 32 31 30 32 33 35 nan nan nan nan nan nan nan nan nan 26 24 18 24
24 22 19 14 8 7 8 7 17 23 nan nan nan nan nan nan nan nan nan nan 23 21 27 28 29 32 34 33 31 nan nan 31 34 34 nan nan nan nan nan nan 42 nan 38 42 33 33 38 35 33 32 34 35 34 34 33 31 31 32 33 32 32 35 nan nan nan nan nan nan nan nan nan nan 21 27
24 23 19 16 12 3 11 nan 9 nan nan nan nan nan nan nan nan nan nan nan 24 25 nan 26 31 32 nan nan nan nan nan nan nan 32 32 33 nan nan nan 36 46 47 52 44 38 39 39 38 35 33 34 37 38 37 34 32 32 34 33 31 31 33 32 nan nan nan nan nan nan nan nan nan nan 28
25 24 20 16 9 4 nan nan nan nan nan nan nan nan nan nan nan nan nan nan 39 30 29 30 33 34 35 35 35 34 33 32 36 37 37 37 37 36 36 38 48 48 45 43 41 39 39 39 38 36 37 40 41 38 35 33 36 35 32 32 31 32 nan nan nan nan nan nan nan nan nan nan nan nan
25 22 17 nan nan nan nan nan nan 9 19 nan nan nan nan nan nan nan nan nan 45 nan 47 42 39 39 32 31 32 34 35 35 38 40 39 38 40 41 41 40 45 47 50 49 45 43 43 39 39 40 41 40 38 36 34 34 34 35 33 33 31 32 nan nan nan nan nan nan nan nan nan nan nan nan
21 22 22 nan 17 14 11 6 1 7 15 20 nan nan nan nan nan nan nan nan nan nan 48 44 nan nan 48 42 37 37 35 34 36 36 38 38 41 44 42 44 46 47 48 46 45 43 44 41 39 40 43 41 38 39 39 38 33 38 35 32 33 nan nan nan nan nan nan nan nan nan nan nan nan nan
25 21 23 24 20 nan 14 10 4 3 13 17 16 15 nan nan nan nan nan nan nan nan nan 45 42 43 nan nan 44 42 41 41 41 40 38 38 41 41 43 43 44 43 45 46 49 47 46 47 44 42 42 41 39 40 38 38 39 39 35 33 nan 34 nan nan 37 nan nan nan nan nan nan nan nan nan
nan nan 24 28 25 21 16 12 8 4 5 11 16 17 19 nan nan nan nan nan nan nan nan nan nan nan nan nan nan nan nan nan nan 39 39 40 41 40 41 40 40 42 42 44 46 49 50 49 48 48 46 41 39 42 41 39 36 39 40 35 nan 34 40 nan nan 39 nan nan nan nan nan nan nan nan
nan 22 nan 24 21 19 15 12 8 7 5 7 12 17 17 18 nan nan nan nan nan nan nan nan nan nan nan nan nan nan nan 41 nan 41 41 42 42 41 40 39 41 43 43 42 42 43 46 48 48 50 51 50 47 44 42 41 41 41 37 35 36 35 42 42 42 42 42 40 39 nan nan nan nan nan
nan 19 20 nan nan nan nan nan nan nan nan nan 9 11 16 18 18 nan nan nan nan nan nan nan nan nan nan nan nan nan nan 45 46 46 45 nan nan 45 44 45 45 45 46 45 42 43 44 46 47 47 47 47 48 50 46 42 40 35 39 39 38 39 43 45 45 45 43 41 41 39 37 nan nan nan
nan nan nan nan nan nan nan nan nan nan nan nan nan nan nan nan nan nan nan nan nan nan nan nan nan nan nan nan nan nan nan nan nan nan nan nan 48 nan nan nan 46 nan nan 47 46 48 nan nan 46 46 44 45 49 51 53 47 39 41 42 44 43 43 44 44 44 43 42 43 43 41 39 38 38 37
nan nan nan nan nan nan nan nan nan nan nan nan nan nan nan nan nan nan nan nan 34 nan nan nan nan nan nan nan nan nan nan nan nan nan nan nan nan nan nan nan nan nan 46 47 nan nan nan nan nan nan nan nan nan 47 49 nan nan 45 46 47 45 44 45 44 42 42 40 40 40 40 38 38 38 37
nan nan nan nan nan nan nan nan nan nan nan nan nan nan nan nan nan nan nan nan nan nan nan nan nan nan nan nan nan nan nan nan nan nan nan nan nan nan nan nan nan nan nan nan nan nan nan nan nan nan nan nan nan nan 53 nan nan nan 46 45 45 45 45 nan 42 40 39 39 38 37 37 35 37 36
nan nan nan nan nan nan nan nan nan nan nan nan nan nan nan nan nan nan nan nan nan nan nan nan nan nan nan nan nan nan nan nan nan nan nan nan nan nan nan nan nan nan nan nan nan nan nan nan nan nan nan nan nan nan nan nan nan 47 nan 43 44 44 nan 40 nan nan 37 39 39 39 37 37 38 40
nan nan nan nan nan nan nan nan nan nan nan nan nan nan nan nan nan nan nan nan nan nan nan nan nan nan nan nan nan nan nan nan nan nan nan nan nan nan nan nan nan nan nan nan nan nan nan nan nan nan nan nan nan nan nan nan nan nan nan nan nan nan 43 42 nan 41 39 40 41 42 42 45 46 47
nan nan nan nan nan nan nan nan nan nan nan nan nan nan nan nan nan nan nan nan nan nan nan nan nan nan nan nan nan nan nan nan nan nan nan nan nan nan nan nan nan nan nan nan nan nan nan nan nan nan nan nan nan nan nan nan nan nan nan nan nan nan nan 45 47 46 45 44 44 40 41 40 39 39
nan nan nan nan nan nan nan nan nan nan nan nan nan nan nan nan nan nan nan nan nan nan nan nan 16 nan nan nan nan nan nan nan nan nan nan nan nan nan nan nan nan nan nan nan nan nan nan nan nan nan nan nan nan nan nan nan nan nan nan nan nan nan nan nan nan nan nan nan 44 nan nan 45 44 42
nan nan nan nan nan nan nan nan nan nan nan nan nan nan nan nan nan nan nan nan nan nan nan nan nan nan nan nan nan nan nan nan nan 25 26 28 30 nan nan nan nan nan nan nan nan nan nan nan nan nan nan nan nan nan nan nan nan nan nan nan nan nan nan nan 59 60 nan 52 49 48 53 51 nan nan
nan nan nan nan nan nan nan nan nan nan nan nan nan nan nan nan nan nan nan nan nan nan nan nan nan nan nan nan nan nan nan nan nan nan 23 25 26 28 31 33 34 35 37 39 41 42 43 nan nan nan nan nan nan nan nan nan nan nan nan nan nan 47 nan nan nan nan nan nan nan nan nan nan nan nan
nan nan nan nan nan nan nan nan nan nan nan nan nan nan nan nan nan nan nan nan nan nan nan nan nan nan nan nan nan nan nan nan nan nan nan 21 23 24 25 27 30 31 34 37 39 41 42 43 44 45 nan 45 nan nan nan nan nan nan nan nan nan nan nan nan nan nan nan nan nan nan nan nan nan nan
nan nan nan nan nan nan nan nan nan nan nan nan nan nan nan nan nan nan nan nan nan nan nan nan nan nan nan nan nan nan nan nan nan nan nan 17 18 19 20 nan 23 26 29 32 35 38 41 43 45 nan nan nan 44 43 44 44 45 nan nan nan nan nan nan nan nan nan nan nan nan nan nan nan nan nan
Wind_Direction
265 264 261 256 249 244 245 249 251 246 244 242 233 226 221 220 219 221 226 225 221 231 239 233 236 245 253 253 254 254 257 255 251 240 240 238 237 242 245 241 239 239 240 241 245 248 251 252 255 257 259 260 262 265 269 273 277 280 283 286 289 291 293 295 296 297 297 297 299 301 304 305 308 312
259 258 259 259 253 248 245 247 253 250 245 242 237 228 226 223 220 230 232 223 221 224 237 235 235 245 254 252 254 254 253 252 248 237 235 238 239 239 249 244 240 238 239 242 246 250 251 252 253 254 256 258 261 265 270 274 278 280 283 285 287 289 291 293 295 297 295 294 294 295 298 301 303 305
262 259 254 248 250 253 248 245 242 247 242 234 237 236 232 224 227 235 240 220 216 221 227 234 238 233 245 248 251 253 252 251 249 240 236 237 239 238 246 245 241 239 241 244 248 250 252 251 252 252 254 257 261 264 267 272 275 279 281 283 285 287 289 291 293 294 293 292 292 293 295 298 301 303
261 252 249 252 249 245 247 247 245 244 241 233 236 240 234 230 235 244 240 230 214 228 227 223 226 241 243 247 241 249 250 252 251 239 238 238 239 242 239 245 245 243 245 248 250 253 254 253 252 252 253 256 259 261 264 268 273 276 279 281 284 286 288 289 291 292 292 290 290 290 292 295 297 300
261 249 243 244 247 247 248 248 246 248 245 239 236 237 235 235 240 244 241 230 218 223 231 230 229 226 230 231 242 243 248 252 248 240 240 241 240 240 239 241 246 246 249 250 253 255 255 256 255 254 254 255 256 259 262 266 270 274 276 279 280 282 284 285 287 288 287 287 288 289 291 296 299 302
266 255 245 237 nan 243 246 246 249 246 243 242 236 234 237 237 233 241 241 234 223 219 230 240 237 230 231 233 237 239 238 247 248 242 238 242 240 240 240 238 238 248 248 250 253 255 256 257 257 255 255 255 256 258 261 264 267 269 272 274 277 279 281 283 285 285 285 285 287 289 291 295 299 303
262 257 249 240 237 240 241 244 246 246 242 241 238 233 232 237 239 240 242 236 229 223 229 239 240 237 238 239 238 240 238 239 241 239 235 237 240 241 243 241 237 236 245 252 254 254 255 255 256 256 255 255 257 259 262 265 267 270 273 276 278 280 280 282 283 283 284 284 284 286 288 nan 296 300
264 256 249 245 238 235 234 236 241 245 242 240 238 234 233 232 236 240 239 236 231 226 227 238 240 239 237 241 242 240 238 240 236 229 234 236 239 243 244 244 242 243 245 247 253 254 253 253 253 254 255 256 258 260 263 266 270 273 276 277 278 277 277 278 278 279 279 278 nan nan nan nan nan nan
270 nan nan nan nan 234 232 nan 235 241 240 237 234 233 233 232 237 241 238 236 236 231 228 232 237 237 235 238 244 245 241 241 240 235 235 231 231 241 245 246 246 248 247 248 253 255 254 254 253 254 255 257 259 262 265 269 272 275 277 277 276 273 272 271 272 273 272 270 268 nan nan nan nan nan
nan nan nan nan nan nan 230 225 nan 231 235 234 233 232 231 232 232 233 234 236 235 233 231 231 233 237 237 239 243 245 243 238 238 238 238 235 233 233 240 247 248 244 242 243 241 246 250 255 258 257 256 258 259 261 264 268 270 272 272 272 270 268 268 267 266 265 263 262 262 265 270 278 nan 287
nan nan nan nan nan nan nan nan nan 224 231 236 230 229 230 232 230 233 235 235 235 234 232 232 233 232 235 239 240 243 242 239 236 234 238 240 239 235 237 245 249 248 243 237 244 248 250 257 257 256 257 260 261 261 264 265 266 266 266 265 265 265 264 264 263 262 261 261 262 265 271 276 279 283
nan nan nan nan nan nan nan nan nan 217 224 232 227 226 231 231 230 233 234 233 233 233 232 231 233 233 232 236 239 238 239 241 239 239 239 238 238 238 233 236 245 249 249 243 241 246 248 250 258 260 262 263 264 265 262 264 262 266 265 266 266 266 266 266 265 265 264 nan nan nan 271 274 275 278
nan nan nan nan nan nan 211 nan nan nan nan 219 219 225 226 227 232 235 232 233 232 232 232 231 232 232 230 233 238 241 243 243 240 241 238 232 231 235 234 235 240 246 246 244 243 244 249 247 248 251 252 254 263 260 262 255 264 264 264 266 268 268 269 268 266 264 263 262 263 nan 269 272 275 277
nan nan nan nan nan nan nan nan 209 nan nan nan nan 214 221 227 231 230 235 236 234 232 230 229 230 230 229 232 236 239 242 241 236 234 239 234 233 231 231 233 234 240 244 245 241 240 242 239 239 246 248 249 257 249 253 247 250 264 271 270 272 273 272 271 270 269 267 265 265 266 269 272 273 275
nan nan nan nan nan nan nan nan nan nan nan nan nan nan nan nan nan 233 234 234 233 233 231 230 231 232 230 230 234 235 237 240 237 233 237 239 239 238 235 234 229 235 241 240 238 238 239 237 239 243 247 247 247 245 242 255 261 265 276 277 277 278 278 276 274 271 268 266 266 266 269 272 274 276
nan nan nan nan nan nan nan nan nan nan nan nan nan nan nan nan nan nan 237 234 233 236 232 229 230 230 232 234 234 233 nan 238 239 237 235 240 241 236 237 235 235 235 237 238 236 236 239 237 244 248 247 244 243 240 244 257 261 265 271 276 279 282 282 280 276 274 271 268 266 267 269 270 272 275
nan 278 269 nan nan nan nan nan nan nan nan nan nan nan nan nan nan nan nan nan 236 nan 234 232 231 232 231 233 233 232 233 236 236 240 240 244 240 237 234 234 230 237 241 238 232 230 245 247 245 244 244 242 240 242 251 257 261 263 265 267 271 278 281 281 280 278 276 271 270 270 271 271 271 272
285 293 275 250 nan nan nan nan nan nan nan nan nan nan nan nan nan nan nan 250 255 nan nan nan nan nan 234 nan 232 232 234 236 237 242 239 241 240 235 232 234 230 231 241 242 239 236 236 240 237 237 239 239 240 236 250 263 260 260 262 266 271 276 280 281 281 280 278 276 275 273 273 nan nan nan
304 312 297 262 242 nan nan nan nan nan nan nan nan nan nan nan nan nan 242 nan 250 nan nan nan 233 231 232 nan nan 233 nan 238 240 242 239 238 238 235 229 227 229 227 232 235 233 227 233 238 233 230 234 238 239 237 250 259 258 257 261 266 272 277 280 279 281 281 280 278 276 274 274 nan nan 270
316 327 312 267 248 241 nan nan nan nan nan nan nan nan nan nan nan nan nan nan nan 250 246 238 nan nan nan nan nan 230 231 234 237 241 241 241 237 233 226 224 233 232 234 226 231 232 233 232 229 229 235 237 237 239 235 258 260 260 262 267 272 276 275 278 279 280 280 279 276 274 274 274 274 nan
327 338 329 275 243 239 234 224 nan nan nan nan nan nan nan nan nan nan nan nan nan nan nan nan nan nan nan nan nan nan nan 227 233 239 241 242 242 234 227 223 224 227 234 232 233 232 228 234 236 233 238 239 239 240 235 244 253 260 261 264 nan 270 274 275 276 276 279 280 277 274 271 272 272 272
326 347 11 332 246 230 228 221 216 nan nan nan nan nan nan nan nan nan nan nan nan nan nan nan nan nan nan nan nan nan nan nan nan 238 238 241 239 233 228 224 225 224 223 228 241 227 nan 233 237 238 239 240 241 240 240 247 249 254 257 nan nan 267 270 272 271 275 279 281 279 274 272 270 269 267
325 334 347 4 280 235 222 214 214 nan nan nan nan nan nan nan nan nan nan nan nan nan nan nan nan nan nan nan nan nan nan nan nan 244 nan 237 236 nan nan 221 223 220 222 218 234 228 234 238 240 243 244 243 244 244 246 252 253 255 258 nan nan nan nan nan nan 269 277 282 281 276 274 274 273 266
327 327 330 345 341 221 205 210 209 nan nan nan nan nan nan nan nan nan nan nan 241 246 246 nan nan nan nan nan nan 236 241 nan 245 nan nan nan nan nan 220 217 219 219 nan 224 241 233 232 237 238 247 246 246 245 250 252 250 251 256 261 263 nan nan nan nan nan nan nan nan 282 278 276 278 274 266
332 328 324 338 3 70 172 201 205 206 nan nan nan nan nan nan nan nan nan nan nan 240 244 nan nan nan nan nan nan nan 244 243 nan nan nan nan 240 nan nan nan nan 218 nan 226 243 231 234 236 238 245 246 250 247 251 251 253 254 258 262 265 265 nan nan nan nan nan nan nan nan nan 273 273 269 243
335 333 327 329 348 69 100 173 199 194 nan nan nan nan nan nan nan nan nan nan 237 240 240 241 243 243 243 243 243 nan nan 250 251 247 nan nan nan nan nan nan 221 nan 224 235 247 235 235 235 239 245 250 252 253 254 254 255 257 260 265 266 265 265 nan nan nan nan nan nan nan nan nan nan 245 240
339 338 333 334 332 60 100 nan 174 nan nan nan nan nan nan nan nan nan nan nan 235 233 nan 239 242 244 nan nan nan nan nan nan nan 250 247 245 nan nan nan 224 223 222 223 226 238 237 240 239 242 249 253 254 254 254 254 253 258 262 264 265 264 264 265 nan nan nan nan nan nan nan nan nan nan 243
342 345 342 330 311 52 nan nan nan nan nan nan nan nan nan nan nan nan nan nan 220 223 231 230 234 237 239 240 243 246 249 250 250 248 244 240 238 237 232 229 229 223 230 229 237 236 239 241 246 250 252 254 256 256 255 254 258 265 267 265 263 262 nan nan nan nan nan nan nan nan nan nan nan nan
344 345 349 nan nan nan nan nan nan 167 182 nan nan nan nan nan nan nan nan nan 218 nan 217 217 223 224 230 238 239 239 243 242 243 244 241 241 239 235 234 232 234 231 225 227 230 236 240 245 250 253 252 253 255 257 258 255 260 265 267 267 265 262 nan nan nan nan nan nan nan nan nan nan nan nan
3 7 3 nan 2 359 360 8 22 183 183 182 nan nan nan nan nan nan nan nan nan nan 217 214 nan nan 223 224 235 237 240 240 239 237 238 238 239 236 234 234 230 226 224 229 232 235 238 242 248 252 251 250 252 255 256 257 256 262 265 268 264 nan nan nan nan nan nan nan nan nan nan nan nan nan
338 344 349 346 350 nan 6 6 3 156 172 191 196 186 nan nan nan nan nan nan nan nan nan 209 212 218 nan nan 223 225 228 230 230 233 236 236 234 237 235 233 231 229 228 231 235 238 243 242 244 247 246 247 250 255 257 255 250 257 260 262 nan 264 nan nan 264 nan nan nan nan nan nan nan nan nan
nan nan 349 349 347 341 338 336 321 276 207 189 197 198 183 nan nan nan nan nan nan nan nan nan nan nan nan nan nan nan nan nan nan 227 232 230 233 233 236 233 232 232 233 233 236 241 244 242 240 238 239 244 251 253 254 255 254 255 257 259 nan 257 266 nan nan 267 nan nan nan nan nan nan nan nan
nan 339 nan 326 333 332 327 332 323 302 260 201 195 200 199 191 nan nan nan nan nan nan nan nan nan nan nan nan nan nan nan 215 nan 217 227 231 232 232 233 234 233 231 232 233 234 238 241 242 240 240 239 239 239 245 252 255 251 245 252 258 258 259 263 265 265 265 266 265 263 nan nan nan nan nan
nan 323 313 nan nan nan nan nan nan nan nan nan 200 191 196 207 207 nan nan nan nan nan nan nan nan nan nan nan nan nan nan 213 213 213 217 nan nan 227 229 229 228 227 227 227 229 236 241 243 244 242 240 239 240 240 242 244 249 248 245 251 252 258 263 265 264 266 265 262 260 261 261 nan nan nan
nan nan nan nan nan nan nan nan nan nan nan nan nan nan nan nan nan nan nan nan nan nan nan nan nan nan nan nan nan nan nan nan nan nan nan nan 221 nan nan nan 225 nan nan 227 225 227 nan nan 241 239 236 239 244 244 238 234 245 251 253 253 256 260 261 260 261 263 263 260 257 256 259 260 261 260
nan nan nan nan nan nan nan nan nan nan nan nan nan nan nan nan nan nan nan nan 203 nan nan nan nan nan nan nan nan nan nan nan nan nan nan nan nan nan nan nan nan nan 225 227 nan nan nan nan nan nan nan nan nan 248 242 nan nan 249 255 259 260 260 255 253 256 259 261 260 256 254 254 255 257 257
nan nan nan nan nan nan nan nan nan nan nan nan nan nan nan nan nan nan nan nan nan nan nan nan nan nan nan nan nan nan nan nan nan nan nan nan nan nan nan nan nan nan nan nan nan nan nan nan nan nan nan nan nan nan 246 nan nan nan 247 256 256 253 251 nan 252 254 254 252 252 250 250 248 249 255
nan nan nan nan nan nan nan nan nan nan nan nan nan nan nan nan nan nan nan nan nan nan nan nan nan nan nan nan nan nan nan nan nan nan nan nan nan nan nan nan nan nan nan nan nan nan nan nan nan nan nan nan nan nan nan nan nan 239 nan 242 252 247 nan 249 nan nan 246 247 248 246 244 243 244 246
nan nan nan nan nan nan nan nan nan nan nan nan nan nan nan nan nan nan nan nan nan nan nan nan nan nan nan nan nan nan nan nan nan nan nan nan nan nan nan nan nan nan nan nan nan nan nan nan nan nan nan nan nan nan nan nan nan nan nan nan nan nan 243 243 nan 246 248 250 249 245 242 241 240 242
nan nan nan nan nan nan nan nan nan nan nan nan nan nan nan nan nan nan nan nan nan nan nan nan nan nan nan nan nan nan nan nan nan nan nan nan nan nan nan nan nan nan nan nan nan nan nan nan nan nan nan nan nan nan nan nan nan nan nan nan nan nan nan 238 241 245 244 242 242 242 247 249 252 252
nan nan nan nan nan nan nan nan nan nan nan nan nan nan nan nan nan nan nan nan nan nan nan nan 213 nan nan nan nan nan nan nan nan nan nan nan nan nan nan nan nan nan nan nan nan nan nan nan nan nan nan nan nan nan nan nan nan nan nan nan nan nan nan nan nan nan nan nan 234 nan nan 257 257 257
nan nan nan nan nan nan nan nan nan nan nan nan nan nan nan nan nan nan nan nan nan nan nan nan nan nan nan nan nan nan nan nan nan 224 223 222 222 nan nan nan nan nan nan nan nan nan nan nan nan nan nan nan nan nan nan nan nan nan nan nan nan nan nan nan 239 239 nan 239 243 248 255 259 nan nan
nan nan nan nan nan nan nan nan nan nan nan nan nan nan nan nan nan nan nan nan nan nan nan nan nan nan nan nan nan nan nan nan nan nan 223 225 225 227 228 228 229 231 230 229 230 230 232 nan nan nan nan nan nan nan nan nan nan nan nan nan nan 243 nan nan nan nan nan nan nan nan nan nan nan nan
nan nan nan nan nan nan nan nan nan nan nan nan nan nan nan nan nan nan nan nan nan nan nan nan nan nan nan nan nan nan nan nan nan nan nan 227 227 226 228 233 235 237 237 235 235 236 237 237 238 237 nan 241 nan nan nan nan nan nan nan nan nan nan nan nan nan nan nan nan nan nan nan nan nan nan
nan nan nan nan nan nan nan nan nan nan nan nan nan nan nan nan nan nan nan nan nan nan nan nan nan nan nan nan nan nan nan nan nan nan nan 235 236 243 240 nan 237 240 242 241 239 240 241 242 243 nan nan nan 240 241 243 244 244 nan nan nan nan nan nan nan nan nan nan nan nan nan nan nan nan nan